Location: Central Falls
(41.8900°N, 71.3929°W)
Time: 07:02:51
(UTC+00:00)

Altair - Pass Details

Date: 09 December 2023
Orbit: 1501 x 1682 km, 47.2° (Epoch: 29 February)

Event Time Altitude Azimuth Distance (km) Brightness Sun altitude
Rises 19:38:59 0° 293° (WNW) 4,683 10.3 12.9°
Reaches altitude 10° 19:42:47 10° 280° (W) 3,678 10.0 12.4°
Maximum altitude 19:49:34 24° 232° (SW) 2,737 10.9 11.6°
Drops below altitude 10° 19:56:18 10° 183° (S) 3,642 10.3 10.7°
Sets 20:00:06 0° 170° (S) 4,627 10.5 10.2°
